Location: Newark
(11.6000°N, 43.1667°E)
Time: 02:39:49
(UTC+00:00)

Hubble Space Telescope - Visible Passes

Search period start: 17 September 2019 00:00
Search period end: 27 September 2019 00:00
Orbit: 536 x 540 km, 28.5° (Epoch: 16 September)

Date Brightness Start Highest point End Pass type
(mag) Time Alt. Az. Time Alt. Az. Time Alt. Az.
21 Sep 3.5 01:15:30 10° N 01:15:59 10° NNE 01:16:28 10° NNE visible
22 Sep 3.4 01:05:31 12° NNE 01:05:36 12° NNE 01:07:14 10° NE visible
22 Sep 3.2 16:24:35 10° S 16:24:49 11° S 16:24:49 11° S visible
23 Sep 3.4 00:55:54 14° NNE 00:55:54 14° NNE 00:57:29 10° NE visible
23 Sep 1.5 02:32:44 10° NW 02:36:45 51° NNE 02:40:45 10° ESE visible
23 Sep 2.6 16:13:05 10° SSW 16:15:23 17° SSE 16:15:23 17° SSE visible
24 Sep 3.6 00:46:20 15° NE 00:46:20 15° NE 00:47:34 10° ENE visible
24 Sep 0.9 02:22:07 10° WNW 02:26:13 72° NNE 02:30:19 10° ESE visible
24 Sep 2.0 16:01:57 10° SSW 16:05:21 25° SSE 16:05:57 24° SE visible
25 Sep 3.8 00:36:49 13° ENE 00:36:49 13° ENE 00:37:32 10° ENE visible
25 Sep 0.7 02:12:11 14° WNW 02:15:40 81° SSW 02:19:46 10° ESE visible
25 Sep 1.6 15:51:01 10° SW 15:54:47 34° SSE 15:56:30 24° ESE visible
26 Sep 4.1 00:27:22 10° E 00:27:22 10° E 00:27:23 10° E visible
26 Sep 0.9 02:02:44 23° W 02:05:06 57° SSW 02:09:09 10° SE visible
26 Sep 1.1 15:40:13 10° SW 15:44:12 48° SSE 15:47:02 18° E visible
26 Sep 3.8 17:21:46 10° W 17:22:24 13° W 17:22:24 13° W visible
